Regional Weather Roundup
Issued by NWS

Home | Current Version | Previous Version | Text Only | Print | Product List | Glossary Off
Versions: 1 2 3 4 5 6 7 8 9 10 11 12 13 14 15 16 17 18 19 20 21 22 23 24 25 26 27 28 29 30 31 32 33 34 35 36 37 38 39 40 41 42 43 44 45 46 47 48 49 50

000
ASUS43 KLMK 260902
RWRKY
KENTUCKY REGIONAL WEATHER ROUNDUP
NATIONAL WEATHER SERVICE LOUISVILLE KY
500 AM EDT TUE JUL 26 2016

NOTE "FAIR" INDICATES FEW OR NO CLOUDS BELOW 12,000 FEET
WITH NO SIGNIFICANT WEATHER AND/OR OBSTRUCTIONS TO VISIBILITY.

KYZ001>023-026-027-061>063-070>075-261000-
WESTERN AND SOUTH CENTRAL KENTUCKY

CITY           SKY/WX    TMP DP  RH WIND       PRES   REMARKS
PADUCAH        CLOUDY    74  72  93 SW3       30.00R
HENDERSON      MOCLDY    72  70  94 CALM      29.99R
OWENSBORO      CLEAR     75  75 100 CALM      30.00R
HOPKINSVILLE   CLEAR     73  73  97 CALM      30.01R
BOWLING GREEN  PTCLDY    74  72  93 CALM      30.01S
GLASGOW        NOT AVBL
$$

KYZ024-025-028>034-038-045-046-053-261000-
NORTH CENTRAL KENTUCKY

CITY           SKY/WX    TMP DP  RH WIND       PRES   REMARKS
LOUISVILLE/SDF CLOUDY    77  73  87 CALM      30.00S
LOUISVILLE/LOU PTCLDY    75  72  90 CALM      30.01S
FORT KNOX      CLEAR     71  71 100 S3        30.01R
$$

KYZ035>037-039>044-047>052-055>060-089>105-261000-
NORTHEAST KENTUCKY

CITY           SKY/WX    TMP DP  RH WIND       PRES   REMARKS
LEXINGTON      FOG       72  71  97 S5        30.03R VSB 3/4
COVINGTON      CLOUDY    77  76  96 CALM      30.01F
FRANKFORT      PTCLDY    74  71  91 CALM      30.01S
$$

KYZ054-064>069-076>088-106>120-261000-
SOUTHEAST KENTUCKY

CITY           SKY/WX    TMP DP  RH WIND       PRES   REMARKS
JACKSON        PTCLDY    72  71  97 CALM      30.05S FOG
LONDON         CLEAR     69  66  90 CALM      30.05F
SOMERSET       PTCLDY    70  70 100 CALM      30.05S FOG
MIDDLESBORO    CLEAR     69  69  99 CALM      30.07S
MONTICELLO     MOSUNNY  N/A N/A N/A NE9       30.06S HAZE
$$




USA.gov is the U.S. government's official web portal to all federal, state and local government web resources and services.